{"data":{"norad_id":58877,"intl_designator":"2024-020B","name":"STARLINK-31326","alt_names":[],"object_type":"PAYLOAD","status":"ACTIVE","operator":null,"country":"US","launch_date":"2024-01-29","launch_site_code":"AFWTR","launch_vehicle":null,"mission":null,"orbit_class":"UNKNOWN","rcs_meters":null,"size_class":null,"mass_kg":null,"dimensions":null,"purposes":["comms"],"wikipedia_slug":null,"has_3d_model":false,"image_url":null,"decayed_at":null,"tle_current":{"epoch":"2026-05-24T19:17:10.479264Z","epoch_age_seconds":87981,"freshness":"FRESH","line1":"1 58877U 24020B   26144.80359351  .00001173  00000+0  49563-4 0  9996","line2":"2 58877  53.1612 328.9372 0001048  93.1391 266.9730 15.31703599129725","mean_motion":15.31703599,"eccentricity":0.0001048,"inclination_deg":53.1612,"raan_deg":328.9372,"arg_perigee_deg":93.1391,"mean_anomaly_deg":266.973,"bstar":4.9563e-5,"rev_number":12972,"period_min":94.012967060999,"perigee_km":470.01150563017,"apogee_km":471.44702799969,"semimajor_km":6848.8662668149,"source":"CELESTRAK","updated_at":"2026-05-25T13:38:18.782340Z"}}}